Location: *
(51.2167°N, 10.0667°E)
Time: 08:06:50
(UTC+00:00)

H-2A R/B - Pass Details

Date: 12 December 2019
Orbit: 501 x 541 km, 97.3° (Epoch: 17 January)

Event Time Altitude Azimuth Distance (km) Brightness Sun altitude
Rises 16:05:07 0° 147° (SSE) 2,598 6.2 -7.8°
Reaches altitude 10° 16:07:16 10° 140° (SE) 1,714 5.2 -8.1°
Maximum altitude 16:10:44 41° 70° (ENE) 747 3.0 -8.6°
Drops below altitude 10° 16:14:14 10° 360° (N) 1,723 5.1 -9.1°
Sets 16:16:24 0° 353° (N) 2,613 6.1 -9.4°
